Regional Weather Roundup
Issued by NWS

Home | Current Version | Previous Version | Graphics & Text | Print | Product List | Glossary On
Versions: 1 2 3 4 5 6 7 8 9 10 11 12 13 14 15 16 17 18 19 20 21 22 23 24 25 26 27
000
ASUS45 KTFX 190410
RWRMT
MONTANA REGIONAL WEATHER ROUNDUP
NATIONAL WEATHER SERVICE GREAT FALLS MT
900 PM MST SAT FEB 18 2017

NOTE: "FAIR" INDICATES FEW OR NO CLOUDS BELOW 12000 FEET WITH NO
SIGNIFICANT WEATHER AND/OR OBSTRUCTIONS TO VISIBILITY.

MTZ001>007-043-190500-
WEST OF THE DIVIDE

CITY           SKY/WX    TMP DP  RH WIND       PRES   REMARKS
KALISPELL      LGT RAIN  34  32  92 NE3       29.36S
MISSOULA       CLOUDY    37  31  78 CALM      29.36R
BUTTE          CLOUDY    40  29  64 S15       29.44S
MULLAN PASS    SNOW      31  31 100 VRB5      29.33S VSB 1/2
ANACONDA         N/A     39  30  70 SW3       29.41S
DEER LODGE       N/A     39  32  75 S6        29.42F
EUREKA           N/A     30  28  93 CALM      29.39S
HAMILTON         N/A     48  30  49 S6        29.36S
LIBBY            N/A     32  32 100 CALM      29.37S
PLAINS           N/A     34  28  79 CALM      29.42S
RONAN            N/A     33  29  86 CALM      29.45F
THOMPSON FALLS   N/A     34  32  92 CALM      29.47R
$$

MTZ008-052>055-190500-
SOUTHWEST MONTANA

CITY           SKY/WX    TMP DP  RH WIND       PRES   REMARKS
BOZEMAN        CLOUDY    40  30  67 S10       29.44F
DILLON         CLOUDY    44  28  53 SE13G23   29.45S
W YELLOWSTONE  MIX PCPN  34  32  93 E3        29.59S
ENNIS          CLEAR     41  30  65 S24G33    29.52F
THREE FORKS      N/A     46 -44   2 S20       29.49F
TWIN BRIDGES     N/A     44  28  53 SE13      29.52S
$$

MTZ009-010-012-014-046-048-049-054-190500-
EAST SLOPES AND CENTRAL MONTANA

CITY           SKY/WX    TMP DP  RH WIND       PRES   REMARKS
CUT BANK       MOCLDY    30  28  92 NE6       29.36F WCI  24
GREAT FALLS    CLOUDY    48  32  53 S15       29.36F
MALMSTROM AFB  CLOUDY    48  33  56 S10       29.37F
HELENA         CLOUDY    49  32  52 S9G21     29.39S
AUGUSTA        MOCLDY    38  31  74 SE6       29.35F
BOWMANS CRNR     N/A     44  29  57 S13       29.34F
CHOTEAU          N/A     37  32  81 W5        29.37F
CONRAD           N/A     32  32 100 CALM      29.44F
POWER            N/A     42  32  69 S9        29.35F
RAYNESFORD     MOCLDY    48  29  48 E10       29.39F
ULM            MOCLDY    46  34  62 MISG      29.37F
$$

MTZ011-013-016-021-045-047-050-051-190500-
NORTH CENTRAL MONTANA

CITY           SKY/WX    TMP DP  RH WIND       PRES   REMARKS
HAVRE          CLOUDY    37  33  85 NE15      29.41F WCI  28
LEWISTOWN      CLOUDY    41  31  67 E9        29.44F
N BAR RANCH      N/A     41  30  65 VRB5      29.50F
CHINOOK          N/A     36  32  87 E17G24    29.46F WCI  25
DENTON         MOCLDY    43  31  63 S12       29.39F
FORT BENTON      N/A     46  30  53 MISG      29.39F
GEYSER         MOCLDY    45  29  55 SE3       29.40F
GRASS RANGE    MOCLDY    39  31  71 CALM      29.44F
JUDITH GAP     MOCLDY    43  30  61 SE17G24   29.44F
ROY              N/A     37  31  81 MISG      29.45S
STANFORD       CLOUDY    40  31  69 S12       29.42S
WINIFRED         N/A     40  32  71 E12       29.42F
$$

MTZ017>020-022>027-061-062-190500-
NORTHEAST MONTANA

CITY           SKY/WX    TMP DP  RH WIND       PRES   REMARKS
GLASGOW        CLOUDY    34  30  85 E14       29.57S WCI  25
JORDAN           N/A     34  30  85 E6        29.53F WCI  29
SIDNEY         CLOUDY    32  30  92 N5        29.65S
WOLF POINT     CLOUDY    33  30  88 E12       29.63S WCI  24
PLENTYWOOD       N/A     34  30  86 E3        29.67F
POPLAR           N/A     30  28  93 NE12      29.64F WCI  21
SCOBEY           N/A     34  25  70 E8        29.64F WCI  27
$$

MTZ028>42-056>058-190500-
SOUTHCENTRAL AND SOUTHEAST MONTANA

CITY           SKY/WX    TMP DP  RH WIND       PRES   REMARKS
BAKER          CLOUDY    33  30  88 SE8       29.60S WCI  26
BILLINGS       CLOUDY    45  34  65 CALM      29.49F
LIVINGSTON     CLOUDY    47  29  49 SW12      29.47F
MILES CITY     CLOUDY    39  32  76 NE9       29.55S
BIG TIMBER     CLEAR     45  30  57 SE7       29.50F
FORSYTH          N/A     39  34  81 E5        29.53S
HARLOWTON      MOCLDY    42  31  64 SE10      29.45F
LAUREL           N/A     42  25  51 CALM      29.53F
$$

REGIONAL REPORTS...DAKOTAS

CITY           SKY/WX    TMP DP  RH WIND       PRES   REMARKS
WILLISTON      CLOUDY    34  30  85 E7        29.68F WCI  28
MINOT          CLOUDY    34  31  88 NE6       29.73S WCI  29
DICKINSON      CLOUDY    28  26  92 NE7       29.61S WCI  21
BEACH            N/A    N/A N/A N/A MISG        N/A
CROSBY           N/A     32  32 100 NE9       29.73S WCI  24
TIOGA            N/A     32  32 100 E7        29.70F WCI  26
WATFORD CITY     N/A     32  30  93 E9        29.66F WCI  24
BISMARCK       PTCLDY    36  34  92 E14       29.68S WCI  27
GRAND FORKS    CLOUDY    35  30  82 CALM      29.81S
FARGO          CLOUDY    36  34  92 E5        29.79S
BUFFALO SD       N/A     42  32  67 CALM      29.54R
RAPID CITY     MOCLDY    47  32  56 CALM      29.61S
$$

REGIONAL REPORTS...WYOMING/IDAHO/WASHINGTON

CITY           SKY/WX    TMP DP  RH WIND       PRES   REMARKS
GILLETTE       CLOUDY    51  32  48 SW20G29   29.58R
SHERIDAN       CLOUDY    34  30  85 S6        29.53F WCI  29
BUFFALO WY     CLOUDY    49  28  44 SW9       29.56S
CODY           CLOUDY    36  30  79 S3        29.55F
YELLOWSTONE LA   N/A     31  30  96 CALM      29.63S
IDAHO FALLS    LGT RAIN  37  36  96 SW8       29.58S WCI  31
SALMON         CLOUDY    39  32  75 S8        29.43S
BOISE          LGT RAIN  46  42  86 VRB6      29.47S
SPOKANE        CLOUDY    33  31  92 SW12      29.41R WCI  24
$$

REGIONAL REPORTS...ALBERTA

CITY           SKY/WX    TMP DP  RH WIND       PRES   REMARKS
EDMONTON       MIX PCPN  34  32  93 E13       29.49F WCI  25
CALGARY        LGT SNOW  32  30  93 S9        29.36F FOG     WCI  24
LETHBRIDGE     FOG       34  32  93 S5        29.37F VSB 1/2
MEDICINE HAT   CLOUDY    39  32  75 NE3       29.41F
WATERTON GATE    N/A     30  28  93 W2          N/A
CARDSTON         N/A     30  28  93 NW1         N/A
MILK RIVER       N/A     34  34 100 NW2         N/A
$$

REGIONAL REPORTS...SASKATCHEWAN

CITY           SKY/WX    TMP DP  RH WIND       PRES   REMARKS
SWIFT CURRENT  CLOUDY    34  30  86 SE24G31   29.53F WCI  21
REGINA         MOCLDY    36  30  80 E14       29.69F WCI  27
SASKATOON      MOCLDY    32  30  93 E9        29.71R WCI  24
CYPRESS HILLS    N/A     32  27  80 SE14G22     N/A  WCI  22
VAL MARIE        N/A     34  28  80 S2          N/A
ROCKGLEN         N/A     32  30  93 SE12G17     N/A  WCI  23
ASSINIBOIA       N/A     34  32  93 E13         N/A  WCI  25
$$




USA.gov is the U.S. government's official web portal to all federal, state and local government web resources and services.